When you browse on this site, cookies collect data to enhance your experience and personalize the content and advertising you see.
Visit our Privacy Policy to learn more. By continuing to use the site, you agree to this use of cookies and data.
  • en Suisse
  • Liste des pays
  • À 7 jours
  • Température de l'eau
  • Carte satellitaire
  • Carte météo
  • Widgets météo
  • user-avatar
    Se connecter

    Météo par heure à Bruhl

    Ce jour, 26 Mai, Dimanche

    Heure Température Précipitation Vent Pression Humidité
    00:00 +12°C° 0 mm 1 m/s 756 mmHg 82%
    01:00 +12°C° 0 mm 1 m/s 756 mmHg 84%
    02:00 +12°C° 0 mm 2 m/s 756 mmHg 86%
    03:00 +10°C° 0 mm 2 m/s 755 mmHg 88%
    04:00 +12°C° 0 mm 2 m/s 755 mmHg 84%
    05:00 +13°C° 0 mm 2 m/s 755 mmHg 79%
    06:00 +14°C° 0 mm 2 m/s 755 mmHg 74%
    07:00 +16°C° 0 mm 2 m/s 755 mmHg 67%
    08:00 +18°C° 0 mm 3 m/s 755 mmHg 59%
    09:00 +20°C° 0 mm 3 m/s 755 mmHg 52%
    10:00 +21°C° 0.1 mm 3 m/s 754 mmHg 54%
    11:00 +21°C° 0.1 mm 4 m/s 754 mmHg 56%
    12:00 +22°C° 0.1 mm 4 m/s 753 mmHg 57%
    13:00 +22°C° 0.1 mm 4 m/s 753 mmHg 61%
    14:00 +22°C° 0.1 mm 4 m/s 753 mmHg 64%
    15:00 +21°C° 0.1 mm 4 m/s 752 mmHg 67%
    16:00 +21°C° 0.2 mm 4 m/s 752 mmHg 70%
    17:00 +20°C° 0.2 mm 4 m/s 752 mmHg 73%
    18:00 +20°C° 0.2 mm 3 m/s 752 mmHg 77%
    19:00 +18°C° 0 mm 3 m/s 752 mmHg 80%
    20:00 +17°C° 0 mm 3 m/s 752 mmHg 83%
    21:00 +16°C° 0 mm 3 m/s 751 mmHg 87%
    22:00 +16°C° 0 mm 3 m/s 751 mmHg 87%
    23:00 +14°C° 0 mm 3 m/s 751 mmHg 88%

    Demain, 27 Mai, Lundi

    Heure Température Précipitation Vent Pression Humidité
    00:00 +14°C° 0 mm 3 m/s 751 mmHg 88%
    01:00 +14°C° 0.2 mm 3 m/s 751 mmHg 89%
    02:00 +14°C° 0.2 mm 3 m/s 750 mmHg 90%
    03:00 +14°C° 0.2 mm 3 m/s 750 mmHg 91%
    04:00 +14°C° 0.8 mm 3 m/s 750 mmHg 92%
    05:00 +14°C° 0.8 mm 3 m/s 750 mmHg 92%
    06:00 +15°C° 0.8 mm 2 m/s 751 mmHg 92%
    07:00 +16°C° 0.1 mm 3 m/s 751 mmHg 84%
    08:00 +16°C° 0.1 mm 3 m/s 751 mmHg 77%
    09:00 +17°C° 0.1 mm 3 m/s 751 mmHg 70%
    10:00 +18°C° 0.1 mm 3 m/s 751 mmHg 66%
    11:00 +18°C° 0.1 mm 3 m/s 751 mmHg 62%
    12:00 +19°C° 0.1 mm 3 m/s 751 mmHg 58%
    13:00 +19°C° 0 mm 3 m/s 751 mmHg 59%
    14:00 +19°C° 0 mm 3 m/s 751 mmHg 59%
    15:00 +18°C° 0 mm 4 m/s 750 mmHg 60%
    16:00 +18°C° 0 mm 3 m/s 750 mmHg 61%
    17:00 +17°C° 0 mm 3 m/s 750 mmHg 63%
    18:00 +16°C° 0 mm 2 m/s 750 mmHg 65%
    19:00 +15°C° 0 mm 2 m/s 751 mmHg 67%
    20:00 +14°C° 0 mm 2 m/s 751 mmHg 69%
    21:00 +13°C° 0 mm 1 m/s 751 mmHg 71%
    22:00 +12°C° 0 mm 1 m/s 751 mmHg 75%
    23:00 +11°C° 0 mm 1 m/s 750 mmHg 78%

    Après-demain, 28 Mai, Mardi

    Heure Température Précipitation Vent Pression Humidité
    00:00 +11°C° 0 mm 1 m/s 750 mmHg 82%
    01:00 +10°C° 0 mm 1 m/s 750 mmHg 82%
    02:00 +10°C° 0 mm 1 m/s 750 mmHg 83%
    03:00 +9°C° 0 mm 2 m/s 749 mmHg 84%
    04:00 +10°C° 0 mm 2 m/s 749 mmHg 81%
    05:00 +12°C° 0 mm 2 m/s 749 mmHg 79%
    06:00 +13°C° 0 mm 2 m/s 749 mmHg 76%
    07:00 +14°C° 0.3 mm 2 m/s 749 mmHg 73%
    08:00 +15°C° 0.3 mm 2 m/s 749 mmHg 70%
    09:00 +16°C° 0.3 mm 2 m/s 748 mmHg 67%
    10:00 +17°C° 0.8 mm 2 m/s 748 mmHg 67%
    11:00 +17°C° 0.8 mm 3 m/s 748 mmHg 66%
    12:00 +17°C° 0.8 mm 3 m/s 748 mmHg 66%
    13:00 +18°C° 0.4 mm 3 m/s 748 mmHg 65%
    14:00 +18°C° 0.4 mm 3 m/s 748 mmHg 64%
    15:00 +18°C° 0.4 mm 3 m/s 748 mmHg 63%
    16:00 +17°C° 0.6 mm 3 m/s 748 mmHg 67%
    17:00 +16°C° 0.6 mm 3 m/s 748 mmHg 72%
    18:00 +14°C° 0.6 mm 3 m/s 749 mmHg 76%
    19:00 +13°C° 0.3 mm 3 m/s 749 mmHg 78%
    20:00 +14°C° 0.3 mm 2 m/s 750 mmHg 81%
    21:00 +13°C° 0.3 mm 2 m/s 751 mmHg 84%
    22:00 +12°C° 0 mm 2 m/s 751 mmHg 86%
    23:00 +11°C° 0 mm 3 m/s 751 mmHg 88%

    29 Mai, Mercredi

    Heure Température Précipitation Vent Pression Humidité
    00:00 +10°C° 0 mm 3 m/s 752 mmHg 90%
    01:00 +10°C° 0 mm 3 m/s 752 mmHg 90%
    02:00 +10°C° 0 mm 3 m/s 753 mmHg 91%
    03:00 +10°C° 0 mm 3 m/s 753 mmHg 91%
    04:00 +10°C° 0 mm 3 m/s 754 mmHg 90%
    05:00 +10°C° 0 mm 3 m/s 754 mmHg 89%
    06:00 +10°C° 0 mm 3 m/s 755 mmHg 88%
    07:00 +10°C° 0 mm 3 m/s 755 mmHg 85%
    08:00 +12°C° 0 mm 2 m/s 756 mmHg 83%
    09:00 +12°C° 0 mm 2 m/s 756 mmHg 80%
    10:00 +14°C° 0 mm 2 m/s 756 mmHg 72%
    11:00 +15°C° 0 mm 2 m/s 756 mmHg 64%
    12:00 +17°C° 0 mm 2 m/s 757 mmHg 56%
    13:00 +17°C° 0 mm 2 m/s 757 mmHg 55%
    14:00 +17°C° 0 mm 3 m/s 757 mmHg 53%
    15:00 +17°C° 0 mm 3 m/s 757 mmHg 51%
    16:00 +17°C° 0 mm 2 m/s 757 mmHg 55%
    17:00 +16°C° 0 mm 2 m/s 757 mmHg 58%
    18:00 +16°C° 0 mm 2 m/s 757 mmHg 61%
    19:00 +14°C° 0 mm 1 m/s 758 mmHg 65%
    20:00 +13°C° 0 mm 1 m/s 758 mmHg 69%
    21:00 +10°C° 0 mm 0 m/s 759 mmHg 72%
    22:00 +11°C° 0 mm 1 m/s 759 mmHg 74%
    23:00 +10°C° 0 mm 1 m/s 759 mmHg 76%

    30 Mai, Jeudi

    Heure Température Précipitation Vent Pression Humidité
    00:00 +10°C° 0 mm 1 m/s 759 mmHg 78%
    01:00 +9°C° 0 mm 1 m/s 759 mmHg 80%
    02:00 +9°C° 0 mm 1 m/s 759 mmHg 81%
    03:00 +9°C° 0 mm 1 m/s 759 mmHg 82%
    04:00 +9°C° 0 mm 2 m/s 759 mmHg 79%
    05:00 +10°C° 0 mm 2 m/s 759 mmHg 76%
    06:00 +13°C° 0 mm 2 m/s 759 mmHg 73%
    07:00 +14°C° 0 mm 2 m/s 759 mmHg 69%
    08:00 +14°C° 0 mm 3 m/s 759 mmHg 64%
    09:00 +17°C° 0 mm 3 m/s 759 mmHg 59%
    10:00 +17°C° 0.2 mm 3 m/s 759 mmHg 60%
    11:00 +17°C° 0.2 mm 4 m/s 759 mmHg 61%
    12:00 +17°C° 0.2 mm 4 m/s 759 mmHg 62%
    13:00 +18°C° 0.2 mm 4 m/s 759 mmHg 64%
    14:00 +18°C° 0.2 mm 4 m/s 759 mmHg 65%
    15:00 +18°C° 0.2 mm 4 m/s 759 mmHg 66%
    16:00 +17°C° 0.1 mm 4 m/s 759 mmHg 70%
    17:00 +17°C° 0.1 mm 3 m/s 760 mmHg 74%
    18:00 +16°C° 0.1 mm 3 m/s 760 mmHg 77%
    19:00 +15°C° 0.1 mm 2 m/s 760 mmHg 81%
    20:00 +15°C° 0.1 mm 2 m/s 761 mmHg 84%
    21:00 +14°C° 0.1 mm 2 m/s 761 mmHg 88%
    22:00 +14°C° 0.2 mm 2 m/s 761 mmHg 89%
    23:00 +14°C° 0.2 mm 1 m/s 761 mmHg 90%

    31 Mai, Vendredi

    Heure Température Précipitation Vent Pression Humidité
    00:00 +14°C° 0.2 mm 1 m/s 761 mmHg 91%
    01:00 +14°C° 0.2 mm 1 m/s 761 mmHg 92%
    02:00 +13°C° 0.2 mm 0 m/s 761 mmHg 93%
    03:00 +12°C° 0.2 mm 0 m/s 761 mmHg 93%
    04:00 +14°C° 0.2 mm 1 m/s 761 mmHg 92%
    05:00 +14°C° 0.2 mm 1 m/s 762 mmHg 91%
    06:00 +15°C° 0.2 mm 2 m/s 762 mmHg 90%
    07:00 +16°C° 0 mm 2 m/s 762 mmHg 88%
    08:00 +17°C° 0 mm 3 m/s 762 mmHg 85%
    09:00 +17°C° 0 mm 3 m/s 762 mmHg 83%
    10:00 +18°C° 0.4 mm 4 m/s 762 mmHg 80%
    11:00 +19°C° 0.4 mm 4 m/s 762 mmHg 77%
    12:00 +20°C° 0.4 mm 4 m/s 762 mmHg 75%
    13:00 +20°C° 0.3 mm 5 m/s 762 mmHg 73%
    14:00 +21°C° 0.3 mm 5 m/s 762 mmHg 72%
    15:00 +21°C° 0.3 mm 6 m/s 762 mmHg 71%
    16:00 +21°C° 0.1 mm 5 m/s 762 mmHg 73%
    17:00 +20°C° 0.1 mm 4 m/s 762 mmHg 75%
    18:00 +19°C° 0.1 mm 4 m/s 762 mmHg 77%
    19:00 +18°C° 0 mm 4 m/s 762 mmHg 80%
    20:00 +17°C° 0 mm 3 m/s 762 mmHg 83%
    21:00 +17°C° 0 mm 3 m/s 763 mmHg 87%
    22:00 +16°C° 0 mm 3 m/s 763 mmHg 88%
    23:00 +14°C° 0 mm 3 m/s 763 mmHg 90%
    Voir plus